This demonstration page uses our WeatherBlox Daily Observations layout. Learn more.

Left ArrowRight Arrow

38.88101, -77.10428

Hourly Observations for May 1, 2016

Temp ( °F °C ) Dew Point ( °F °C ) Humidity (%) Winds ( mph kmh ) Pressure ( in mb ) Visibility ( mi km ) Precip ( " mm )
12:19 am 00:19 Cloudy 54 12.2 50 10 87 87 SSE 5 7 30.21 1023 10 16 N/A
12:52 am 00:52 Cloudy with Light Rain 54 12.2 50 10 87 87 SE 7 11 30.20 1023 10 16 N/A
12:59 am 00:59 Cloudy with Light Rain 54 12.2 50 10 87 87 SE 8 13 30.21 1023 10 16 N/A
1:20 am 01:20 Cloudy with Light Rain 54 12 52 11 94 94 SSE 7 11 30.18 1022 10 16 N/A
1:52 am 01:52 Cloudy with Light Rain 54 12.2 51 10.6 90 90 SE 10 17 30.17 1022 10 16 N/A
2:34 am 02:34 Cloudy with Light Rain 54 12 50 10 88 88 SSE 9 15 30.18 1022 10 16 N/A
2:52 am 02:52 Cloudy with Light Rain 52 11.1 49 9.4 89 89 SSE 7 11 30.16 1021 10 16 0.02 0.51
3:52 am 03:52 Cloudy with Light Rain 52 11.1 49 9.4 89 89 SSE 8 13 30.15 1021 10 16 N/A
4:08 am 04:08 Cloudy with Light Rain 52 11.1 49 9.4 89 89 SSE 12 19 30.15 1021 10 16 N/A
4:52 am 04:52 Cloudy with Light Rain 52 11.1 50 10 93 93 SSE 8 13 30.13 1020 7 11 0.03 0.76
5:15 am 05:15 Cloudy with Light Rain 52 11.1 50 10 93 93 S 10 17 30.15 1021 8 13 0.02 0.51
5:49 am 05:49 Cloudy with Light Rain 52 11 50 10 94 94 SSE 10 17 30.12 1020 6 10 0.06 1.52
5:52 am 05:52 Cloudy with Light Rain 52 11.1 50 10 93 93 SSE 9 15 30.13 1020 6 10 0.06 1.52
6:01 am 06:01 Cloudy with Light Rain 52 11.1 50 10 93 93 SSE 7 11 30.12 1020 6 10 0.02 0.51
6:08 am 06:08 Cloudy with Light Rain 52 11 50 10 94 94 SSE 9 15 30.12 1020 8 13 N/A
6:20 am 06:20 Cloudy with Light Rain 54 12 52 11 94 94 SSE 12 19 30.12 1020 6 10 N/A
6:38 am 06:38 Cloudy with Light Rain 54 12 52 11 94 94 SE 7 11 30.12 1020 9 14 N/A
6:52 am 06:52 Cloudy with Light Rain 53 11.7 51 10.6 93 93 SSE 7 11 30.12 1020 10 16 0.04 1.02
7:37 am 07:37 Cloudy with Light Rain 53 11.7 51 10.6 93 93 SSE 7 11 30.12 1020 7 11 0.02 0.51
7:52 am 07:52 Cloudy with Light Rain 53 11.7 51 10.6 93 93 SSE 9 15 30.13 1020 6 10 0.03 0.76
8:25 am 08:25 Cloudy with Light Rain 53 11.7 51 10.6 93 93 S 10 17 30.12 1020 5 8 0.05 1.27
8:52 am 08:52 Cloudy with Light Rain 53 11.7 51 10.6 93 93 S 9 15 30.13 1020 8 13 0.08 2.03
9:10 am 09:10 Cloudy with Light Rain 54 12 52 11 94 94 SSE 8 13 30.12 1020 7 11 N/A
9:21 am 09:21 Cloudy with Light Rain 53 11.7 51 10.6 93 93 S 8 13 30.12 1020 10 16 0.01 0.25
9:38 am 09:38 Cloudy with Light Rain 54 12 52 11 94 94 S 8 13 30.12 1020 10 16 N/A
9:52 am 09:52 Cloudy with Light Rain 54 12.2 52 11.1 93 93 SE 8 13 30.12 1020 10 16 0.02 0.51
10:20 am 10:20 Cloudy with Rain 54 12 52 11 94 94 SSE 9 15 30.12 1020 4 6 N/A
10:29 am 10:29 Cloudy with Light Rain 54 12.2 52 11.1 93 93 SSE 7 11 30.12 1020 5 8 0.03 0.76
10:52 am 10:52 Cloudy with Rain 54 12.2 52 11.1 93 93 SSE 8 13 30.11 1020 4 6 0.09 2.29
11:07 am 11:07 Cloudy with Heavy Rain 54 12.2 52 11.1 93 93 S 9 15 30.12 1020 3 4 0.04 1.02
11:11 am 11:11 Cloudy with Heavy Rain 54 12.2 52 11.1 93 93 SSE 9 15 30.12 1020 2 3 0.07 1.78
11:19 am 11:19 Cloudy with Light Rain 54 12.2 52 11.1 93 93 SSE 7 11 30.12 1020 4 6 0.09 2.29
11:26 am 11:26 Cloudy with Light Rain 54 12.2 52 11.1 93 93 SSE 8 13 30.09 1019 8 13 0.10 2.54
11:52 am 11:52 Cloudy with Light Rain 56 13.3 53 11.7 90 90 SSE 9 15 30.08 1019 10 16 0.10 2.54
12:52 pm 12:52 Cloudy 56 13.3 53 11.7 90 90 SSW 8 13 30.09 1019 10 16 N/A
1:52 pm 13:52 Cloudy 57 13.9 54 12.2 90 90 SSE 6 9 30.07 1018 10 16 N/A
2:52 pm 14:52 Cloudy 58 14.4 54 12.2 87 87 ESE 3 6 30.06 1018 10 16 N/A
3:52 pm 15:52 Cloudy 58 14.4 55 12.8 90 90 E 7 11 30.03 1017 10 16 N/A
4:52 pm 16:52 Cloudy 59 15 55 12.8 87 87 SE 5 7 30.02 1017 10 16 N/A
5:10 pm 17:10 Cloudy 57 14 55 13 94 94 N N/A 30.03 1017 9 14 N/A
5:43 pm 17:43 Cloudy 58 14.4 55 12.8 90 90 ESE 5 7 30.03 1017 9 14 N/A
5:52 pm 17:52 Cloudy 58 14.4 55 12.8 90 90 SE 6 9 30.01 1016 9 14 N/A
6:18 pm 18:18 Cloudy 57 14 55 13 94 94 ESE 7 11 30.00 1016 10 16 N/A
6:52 pm 18:52 Cloudy 58 14.4 55 12.8 90 90 E 7 11 30.01 1016 8 13 N/A
7:20 pm 19:20 Cloudy with Drizzle 57 14 55 13 94 94 E 7 11 30.00 1016 6 10 N/A
7:52 pm 19:52 Cloudy 55 13 48 9 77 77 ESE 7 11 30.21 1023 10 16 N/A
8:52 pm 20:52 Cloudy with Drizzle 56 13.3 55 12.8 97 97 E 7 11 30.04 1017 4 6 N/A
9:52 pm 21:52 Cloudy with Drizzle 56 13.3 55 12.8 97 97 ENE 6 9 30.05 1018 4 6 N/A
10:52 pm 22:52 Cloudy with Light Rain 56 13.3 54 12.2 93 93 ENE 5 7 30.04 1017 8 13 N/A
11:52 pm 23:52 Cloudy with Light Rain 56 13.3 54 12.2 93 93 ENE 7 11 30.03 1017 10 16 N/A

Powered by AerisWeather